GW6594 Weather Reports


time (UTC)temp
F
wind
direction
speed
knots
gust
knots
rain 1hr
in
rain 24hr
in
rain mn
in
humidity
%
barometer
mb
20260505130113 57 196 11.3 19.1 0.00 0.02 0.00 71 1008.7
20260505124612 55 219 14.8 22.6 0.00 0.02 0.00 72 1009.0
20260505123110 55 204 12.2 20.0 0.00 0.02 0.00 74 1009.1
20260505121559 54 209 12.2 19.1 0.00 0.02 0.00 74 1009.1
20260505120121 54 179 8.7 17.4 0.00 0.02 0.00 74 1009.1
20260505114601 53 214 7.8 14.8 0.00 0.02 0.00 75 1009.1
20260505113107 52 190 6.1 11.3 0.00 0.02 0.00 77 1009.1
20260505111600 51 188 7.8 14.8 0.00 0.02 0.00 79 1008.9
20260505110120 49 233 7.8 11.3 0.00 0.02 0.00 81 1008.9
20260505101603 47 188 7.8 13.0 0.00 0.02 0.00 84 1008.9
20260505100101 47 203 7.8 13.0 0.00 0.02 0.00 84 1008.8
20260505094600 47 225 8.7 15.6 0.00 0.02 0.00 83 1008.7
20260505093108 47 200 11.3 16.5 0.00 0.02 0.00 83 1008.5
20260505091600 47 235 9.6 16.5 0.00 0.02 0.00 82 1008.4
20260505090059 47 214 8.7 14.8 0.00 0.02 0.00 81 1008.5
20260505084558 48 215 9.6 17.4 0.00 0.02 0.00 80 1008.5
20260505083059 48 210 11.3 18.2 0.00 0.02 0.00 79 1008.4
20260505081620 48 217 11.3 20.0 0.00 0.02 0.00 79 1008.3
20260505080112 48 210 10.4 18.2 0.00 0.02 0.00 79 1008.3
20260505074559 48 200 9.6 16.5 0.00 0.02 0.00 79 1008.2
20260505073058 48 207 9.6 15.6 0.00 0.02 0.00 79 1008.3
20260505071617 48 215 11.3 16.5 0.00 0.02 0.00 79 1008.4
20260505070112 48 212 9.6 14.8 0.00 0.02 0.00 79 1008.3
20260505064604 48 213 8.7 15.6 0.00 0.02 0.00 78 1008.4
20260505063101 48 204 9.6 16.5 0.00 0.02 0.00 78 1008.3
20260505061602 49 209 9.6 17.4 0.00 0.02 0.00 78 1008.2
20260505060103 49 224 9.6 20.9 0.00 0.02 0.00 77 1008.3
20260505054559 49 221 11.3 20.0 0.00 0.02 0.00 77 1008.2
20260505053105 49 222 10.4 17.4 0.00 0.02 0.00 78 1008.1
20260505051600 49 195 9.6 18.2 0.00 0.02 0.00 77 1007.8
20260505041600 48 201 7.0 12.2 0.00 0.02 0.00 78 1007.7
20260505040110 48 214 5.2 13.9 0.00 0.02 0.00 78 1007.8
20260505034600 48 206 8.7 13.9 0.00 0.02 0.02 79 1007.7
20260505033101 48 220 6.1 10.4 0.00 0.02 0.02 79 1007.7
20260505031601 48 208 6.1 9.6 0.00 0.02 0.02 78 1007.6
20260505030104 48 222 6.1 13.9 0.00 0.02 0.02 78 1007.7
20260505024558 48 200 8.7 13.9 0.00 0.02 0.02 77 1007.8
20260505023109 48 196 7.0 11.3 0.00 0.02 0.02 77 1007.7
20260505021602 48 215 7.0 12.2 0.00 0.02 0.02 77 1007.7
20260505020105 48 188 6.1 12.2 0.00 0.02 0.02 76 1007.7
20260505014600 48 219 7.8 13.9 0.00 0.02 0.02 76 1007.6
20260505013101 48 206 7.0 11.3 0.00 0.02 0.02 76 1007.5
20260505011559 48 200 6.1 11.3 0.00 0.02 0.02 76 1007.5
20260505010104 48 202 7.0 10.4 0.00 0.02 0.02 75 1007.4
20260505004559 49 213 6.1 11.3 0.00 0.02 0.02 74 1007.3
20260505003105 49 175 6.1 9.6 0.00 0.02 0.02 74 1007.1
20260505001559 50 163 7.0 9.6 0.00 0.02 0.02 73 1006.9
20260505000112 52 135 4.3 7.8 0.00 0.02 0.02 71 1006.7
20260504234559 54 146 4.3 7.0 0.00 0.02 0.02 69 1006.5
20260504233106 55 168 4.3 9.6 0.00 0.02 0.02 65 1006.1
20260504231558 56 195 4.3 7.8 0.00 0.02 0.02 63 1006.1
20260504230059 58 167 3.5 7.0 0.00 0.02 0.02 60 1006.0
20260504224602 59 179 2.6 7.0 0.00 0.02 0.02 59 1005.8
20260504223058 59 204 4.3 7.8 0.00 0.02 0.02 58 1005.8
20260504221600 60 225 4.3 7.8 0.00 0.02 0.02 58 1005.8
20260504220123 60 240 6.1 10.4 0.00 0.02 0.02 57 1005.7
20260504214600 60 229 6.1 12.2 0.00 0.02 0.02 57 1005.6
20260504213102 61 200 5.2 11.3 0.00 0.02 0.02 57 1005.4
20260504211600 61 208 7.8 12.2 0.00 0.02 0.02 56 1005.5
20260504210059 62 180 6.1 12.2 0.00 0.02 0.02 57 1005.3
20260504204559 62 226 6.1 10.4 0.00 0.02 0.02 57 1005.3
20260504203057 61 222 7.8 10.4 0.00 0.02 0.02 60 1005.2
20260504201559 60 209 7.8 15.6 0.00 0.02 0.02 59 1005.1
20260504194559 59 227 7.8 14.8 0.00 0.04 0.02 64 1005.0
20260504193059 58 273 8.7 13.0 0.00 0.04 0.02 69 1005.2
20260504191600 56 196 7.8 12.2 0.01 0.04 0.02 78 1005.3
20260504190110 51 204 7.0 10.4 0.02 0.04 0.02 86 1005.7
20260504184616 49 229 6.1 12.2 0.02 0.08 0.02 83 1005.9
20260504183107 49 246 9.6 13.9 0.02 0.08 0.02 79 1006.1
20260504181558 51 217 7.8 13.0 0.01 0.07 0.01 76 1006.0
20260504174610 52 224 10.4 20.9 0.00 0.13 0.00 63 1005.4
20260504173104 51 190 9.6 17.4 0.00 0.13 0.00 63 1005.4
20260504171600 52 221 12.2 20.9 0.00 0.13 0.00 61 1005.4
20260504170109 56 222 11.3 18.2 0.00 0.13 0.00 60 1005.1
20260504150103 56 197 7.0 13.0 0.00 0.32 0.00 51 1006.2